This is the latest recevied weather packets stored in our database for station/object SV2RIM-2. If no packets are shown the sender has not sent any weather packets the latest 10 day(s).
| Time | Temp. | Humidity | Pressure | Rain* | Wind** | Luminosity | Snow |
|---|---|---|---|---|---|---|---|
| 1787511619 | 30.56° C | 37% | 1015.4 hPa | - | - | - | - |
| 1787511019 | 30° C | 38% | 1015.4 hPa | - | - | - | - |
| 1787510419 | 30.56° C | 36% | 1015.2 hPa | - | - | - | - |
| 1787509819 | 31.11° C | 35% | 1015 hPa | - | - | - | - |
| 1787509219 | 31.67° C | 35% | 1014.6 hPa | - | - | - | - |
| 1787508619 | 31.67° C | 35% | 1014.6 hPa | - | - | - | - |
| 1787508019 | 31.67° C | 35% | 1014.2 hPa | - | - | - | - |
| 1787507419 | 31.67° C | 34% | 1014 hPa | - | - | - | - |
| 1787506819 | 31.67° C | 34% | 1013.8 hPa | - | - | - | - |
| 1787506219 | 32.22° C | 33% | 1013.7 hPa | - | - | - | - |
| 1787505619 | 32.22° C | 33% | 1013.8 hPa | - | - | - | - |
| 1787505019 | 32.78° C | 33% | 1014.2 hPa | - | - | - | - |
| 1787504419 | 32.78° C | 32% | 1013.9 hPa | - | - | - | - |
| 1787503819 | 33.33° C | 32% | 1013.5 hPa | - | - | - | - |
| 1787503219 | 33.33° C | 31% | 1013.5 hPa | - | - | - | - |
| 1787502619 | 33.33° C | 31% | 1013.2 hPa | - | - | - | - |
| 1787502019 | 33.89° C | 30% | 1013.4 hPa | - | - | - | - |
| 1787501419 | 34.44° C | 30% | 1013.2 hPa | - | - | - | - |
| 1787500819 | 35° C | 30% | 1012.9 hPa | - | - | - | - |
| 1787500219 | 36.67° C | 28% | 1012.8 hPa | - | - | - | - |
| 1787499619 | 38.33° C | 26% | 1012.9 hPa | - | - | - | - |
| 1787499019 | 38.89° C | 26% | 1012.8 hPa | - | - | - | - |
| 1787498419 | 38.89° C | 26% | 1012.8 hPa | - | - | - | - |
| 1787497819 | 38.89° C | 25% | 1012.8 hPa | - | - | - | - |
| 1787497219 | 39.44° C | 25% | 1012.8 hPa | - | - | - | - |
* Rain since midnight (hover to see other rain measurements)
** Current wind speed in m/s (hover to see current wind gust speed)